LOT024W LFLL-LEBL

Flight info

Callsign LOT024W
Flight time 1h 2m
Altitude 29000
Route ROMAM A6 MTL DCT DIVKO DCT NILDU DCT BISBA
Aircraft A306/H-SDE3FGHIRWY/LB1

Departure

Time 2026-05-05 19:47
Airport Lyon Saint-Exupéry Airport (LFLL)

Arrival

Time 2026-05-05 20:50
Airport Josep Tarradellas Barcelona-El Prat Airport (LEBL)
Time Latitude Longitude Altitude Speed Heading
2026-05-05 19:06 45.72282 5.08151 809 ft 0 kts 275°
2026-05-05 19:08 45.72286 5.08151 808 ft 0 kts 256°
2026-05-05 19:08 45.72293 5.08136 809 ft 0 kts 266°
2026-05-05 19:09 45.72286 5.08151 808 ft 0 kts 256°
2026-05-05 19:13 45.72288 5.08150 809 ft 0 kts 251°
2026-05-05 19:29 45.72292 5.08168 809 ft 4 kts 248°
2026-05-05 19:29 45.72302 5.08203 809 ft 4 kts 250°
2026-05-05 19:30 45.72309 5.08233 809 ft 4 kts 271°
2026-05-05 19:30 45.72303 5.08260 809 ft 4 kts 327°
2026-05-05 19:30 45.72280 5.08276 808 ft 2 kts 337°
2026-05-05 19:30 45.72279 5.08277 808 ft 0 kts 337°
2026-05-05 19:34 45.72280 5.08277 808 ft 1 kts 337°
2026-05-05 19:34 45.72295 5.08273 809 ft 3 kts 360°
2026-05-05 19:35 45.72321 5.08353 808 ft 8 kts 90°
2026-05-05 19:35 45.72330 5.08384 808 ft 3 kts 54°
2026-05-05 19:35 45.72359 5.08407 809 ft 8 kts 24°
2026-05-05 19:35 45.72382 5.08408 808 ft 0 kts 353°
2026-05-05 19:36 45.72395 5.08406 808 ft 7 kts 353°
2026-05-05 19:36 45.72476 5.08395 808 ft 17 kts 354°
2026-05-05 19:36 45.72624 5.08377 808 ft 25 kts 357°
2026-05-05 19:37 45.72787 5.08362 808 ft 21 kts 356°
2026-05-05 19:37 45.72902 5.08344 808 ft 13 kts 356°
2026-05-05 19:37 45.73010 5.08333 808 ft 19 kts 355°
2026-05-05 19:37 45.73148 5.08317 808 ft 19 kts 355°
2026-05-05 19:38 45.73267 5.08301 808 ft 15 kts 354°
2026-05-05 19:38 45.73373 5.08287 808 ft 18 kts 355°
2026-05-05 19:38 45.73521 5.08267 808 ft 23 kts 355°
2026-05-05 19:38 45.73651 5.08261 808 ft 15 kts 13°
2026-05-05 19:39 45.73702 5.08314 808 ft 6 kts 51°
2026-05-05 19:39 45.73721 5.08383 807 ft 10 kts 80°
2026-05-05 19:39 45.73702 5.08526 805 ft 21 kts 105°
2026-05-05 19:39 45.73656 5.08695 797 ft 8 kts 140°
2026-05-05 19:40 45.73629 5.08714 798 ft 5 kts 161°
2026-05-05 19:40 45.73605 5.08721 799 ft 1 kts 171°
2026-05-05 19:40 45.73589 5.08724 799 ft 1 kts 174°
2026-05-05 19:46 45.73530 5.08732 800 ft 26 kts 175°
2026-05-05 19:47 45.73103 5.08785 805 ft 94 kts 175°
2026-05-05 19:47 45.72242 5.08888 811 ft 153 kts 174°
2026-05-05 19:47 45.71078 5.09042 1342 ft 169 kts 175°
2026-05-05 19:47 45.69878 5.09198 2230 ft 174 kts 177°
2026-05-05 19:48 45.68658 5.09338 3129 ft 185 kts 178°
2026-05-05 19:48 45.67282 5.09492 3728 ft 208 kts 178°
2026-05-05 19:48 45.65788 5.09667 4556 ft 219 kts 177°
2026-05-05 19:48 45.64202 5.09857 5253 ft 234 kts 177°
2026-05-05 19:49 45.62543 5.10057 6057 ft 244 kts 177°
2026-05-05 19:49 45.61409 5.10194 6487 ft 246 kts 177°
2026-05-05 19:49 45.59152 5.10470 6938 ft 245 kts 177°
2026-05-05 19:49 45.57445 5.10679 6992 ft 246 kts 176°
2026-05-05 19:50 45.55720 5.10890 6901 ft 246 kts 176°
2026-05-05 19:50 45.54012 5.11096 6884 ft 246 kts 177°
2026-05-05 19:50 45.52325 5.11300 6883 ft 246 kts 177°
2026-05-05 19:50 45.50618 5.11507 6918 ft 246 kts 177°
2026-05-05 19:51 45.48904 5.11715 6919 ft 246 kts 177°
2026-05-05 19:51 45.47194 5.11921 7081 ft 248 kts 177°
2026-05-05 19:51 45.46035 5.12059 7357 ft 259 kts 177°
2026-05-05 19:51 45.43573 5.12354 8570 ft 268 kts 177°
2026-05-05 19:52 45.42328 5.12503 9284 ft 270 kts 177°
2026-05-05 19:52 45.40446 5.12730 10248 ft 276 kts 177°
2026-05-05 19:52 45.38462 5.12967 10697 ft 298 kts 177°
2026-05-05 19:52 45.36286 5.12988 11017 ft 320 kts 187°
2026-05-05 19:53 45.34023 5.12422 11328 ft 340 kts 193°
2026-05-05 19:53 45.31674 5.11564 11699 ft 355 kts 197°
2026-05-05 19:53 45.29297 5.10535 12297 ft 363 kts 198°
2026-05-05 19:53 45.26790 5.09378 13012 ft 368 kts 199°
2026-05-05 19:54 45.24399 5.08260 13667 ft 373 kts 199°
2026-05-05 19:54 45.21931 5.07117 14369 ft 375 kts 199°
2026-05-05 19:54 45.19438 5.05981 15131 ft 376 kts 198°
2026-05-05 19:54 45.16925 5.04853 15887 ft 378 kts 198°
2026-05-05 19:55 45.14421 5.03742 16627 ft 379 kts 198°
2026-05-05 19:55 45.11875 5.02621 17352 ft 382 kts 198°
2026-05-05 19:55 45.09330 5.01502 18080 ft 384 kts 198°
2026-05-05 19:55 45.06785 5.00385 18675 ft 386 kts 198°
2026-05-05 19:56 45.04224 4.99261 19249 ft 389 kts 198°
2026-05-05 19:56 45.01619 4.98119 19814 ft 391 kts 198°
2026-05-05 19:56 44.99029 4.96983 20346 ft 393 kts 198°
2026-05-05 19:56 44.96385 4.95825 20903 ft 395 kts 198°
2026-05-05 19:57 44.93749 4.94671 21444 ft 398 kts 198°
2026-05-05 19:57 44.91116 4.93519 21967 ft 400 kts 198°
2026-05-05 19:57 44.88460 4.92358 22494 ft 402 kts 198°
2026-05-05 19:57 44.85755 4.91176 22990 ft 405 kts 197°
2026-05-05 19:58 44.83067 4.90004 23441 ft 408 kts 197°
2026-05-05 19:58 44.80358 4.88824 23828 ft 410 kts 197°
2026-05-05 19:58 44.77610 4.87628 24221 ft 412 kts 198°
2026-05-05 19:58 44.74857 4.86429 24623 ft 414 kts 198°
2026-05-05 19:59 44.72083 4.85223 25017 ft 415 kts 198°
2026-05-05 19:59 44.69295 4.84011 25387 ft 417 kts 198°
2026-05-05 19:59 44.66503 4.82800 25769 ft 418 kts 198°
2026-05-05 19:59 44.63722 4.81597 26124 ft 420 kts 198°
2026-05-05 20:00 44.60896 4.80373 26495 ft 421 kts 198°
2026-05-05 20:00 44.58091 4.79160 26854 ft 423 kts 198°
2026-05-05 20:00 44.55229 4.77924 27201 ft 424 kts 198°
2026-05-05 20:00 44.52398 4.76703 27535 ft 425 kts 198°
2026-05-05 20:01 44.49558 4.75480 27943 ft 424 kts 198°
2026-05-05 20:01 44.46720 4.74259 28502 ft 421 kts 198°
2026-05-05 20:01 44.43907 4.73050 28865 ft 419 kts 198°
2026-05-05 20:01 44.41153 4.71868 28921 ft 407 kts 198°
2026-05-05 20:02 44.38495 4.70731 28925 ft 386 kts 199°
2026-05-05 20:02 44.35957 4.69646 28932 ft 373 kts 199°
2026-05-05 20:02 44.33487 4.68588 28931 ft 371 kts 199°
2026-05-05 20:03 44.28532 4.66462 28931 ft 372 kts 199°
2026-05-05 20:03 44.23596 4.64352 28934 ft 372 kts 199°
2026-05-05 20:04 44.18637 4.62236 28932 ft 372 kts 199°
2026-05-05 20:04 44.13681 4.60125 28929 ft 372 kts 199°
2026-05-05 20:05 44.08744 4.58027 28925 ft 372 kts 199°
2026-05-05 20:05 44.03783 4.55925 28924 ft 372 kts 199°
2026-05-05 20:06 43.98837 4.53830 28926 ft 371 kts 199°
2026-05-05 20:06 43.93873 4.51731 28924 ft 371 kts 199°
2026-05-05 20:07 43.88925 4.49643 28934 ft 371 kts 199°
2026-05-05 20:07 43.84015 4.47575 28935 ft 370 kts 199°
2026-05-05 20:08 43.79069 4.45495 28941 ft 369 kts 199°
2026-05-05 20:08 43.74122 4.43419 28937 ft 369 kts 199°
2026-05-05 20:09 43.69203 4.41358 28938 ft 368 kts 199°
2026-05-05 20:09 43.64310 4.39311 28933 ft 368 kts 199°
2026-05-05 20:10 43.59426 4.37271 28941 ft 368 kts 199°
2026-05-05 20:10 43.54488 4.35212 28920 ft 368 kts 199°
2026-05-05 20:11 43.49597 4.33176 28926 ft 368 kts 199°
2026-05-05 20:11 43.44697 4.31141 28921 ft 367 kts 199°
2026-05-05 20:12 43.39791 4.29106 28923 ft 367 kts 199°
2026-05-05 20:12 43.34905 4.27083 28921 ft 367 kts 199°
2026-05-05 20:13 43.30783 4.25377 28916 ft 375 kts 199°
2026-05-05 20:13 43.25646 4.23250 28912 ft 393 kts 199°
2026-05-05 20:13 43.22131 4.21798 28914 ft 404 kts 199°
2026-05-05 20:14 43.20316 4.21051 28916 ft 408 kts 199°
2026-05-05 20:14 43.14798 4.18785 28913 ft 414 kts 199°
2026-05-05 20:15 43.09275 4.16523 28917 ft 413 kts 199°
2026-05-05 20:15 43.03751 4.14263 28915 ft 413 kts 199°
2026-05-05 20:16 42.98232 4.12005 28916 ft 413 kts 200°
2026-05-05 20:16 42.92739 4.09762 28915 ft 413 kts 200°
2026-05-05 20:17 42.87159 4.07488 28914 ft 413 kts 200°
2026-05-05 20:17 42.81654 4.05249 28910 ft 413 kts 200°
2026-05-05 20:18 42.76149 4.03015 28910 ft 413 kts 200°
2026-05-05 20:18 42.70654 4.00789 28913 ft 414 kts 200°
2026-05-05 20:19 42.65126 3.98553 28912 ft 413 kts 200°
2026-05-05 20:19 42.59585 3.96316 28910 ft 413 kts 200°
2026-05-05 20:20 42.54100 3.94105 28921 ft 412 kts 201°
2026-05-05 20:20 42.48601 3.91893 28915 ft 411 kts 201°
2026-05-05 20:21 42.43112 3.89691 28910 ft 411 kts 201°
2026-05-05 20:21 42.37635 3.87496 28906 ft 410 kts 201°
2026-05-05 20:22 42.32175 3.85313 28906 ft 409 kts 201°
2026-05-05 20:22 42.26800 3.82808 28903 ft 402 kts 210°
2026-05-05 20:23 42.22268 3.78496 28907 ft 396 kts 222°
2026-05-05 20:23 42.18120 3.73648 28520 ft 380 kts 223°
2026-05-05 20:23 42.16148 3.71340 27701 ft 377 kts 223°
2026-05-05 20:24 42.14186 3.69047 26888 ft 376 kts 222°
2026-05-05 20:24 42.12219 3.66752 26135 ft 374 kts 222°
2026-05-05 20:24 42.10245 3.64453 25411 ft 371 kts 222°
2026-05-05 20:24 42.08329 3.62118 24703 ft 369 kts 225°
2026-05-05 20:25 42.06551 3.59688 24020 ft 367 kts 226°
2026-05-05 20:25 42.04777 3.57204 23306 ft 365 kts 226°
2026-05-05 20:25 42.03015 3.54735 22525 ft 363 kts 226°
2026-05-05 20:25 42.01282 3.52310 21776 ft 361 kts 226°
2026-05-05 20:26 41.99536 3.49872 21048 ft 360 kts 226°
2026-05-05 20:26 41.97791 3.47438 20344 ft 359 kts 225°
2026-05-05 20:26 41.96073 3.45046 19683 ft 358 kts 225°
2026-05-05 20:26 41.94324 3.42613 19030 ft 357 kts 225°
2026-05-05 20:27 41.92614 3.40235 18398 ft 356 kts 225°
2026-05-05 20:27 41.90902 3.37858 17701 ft 355 kts 225°
2026-05-05 20:27 41.89143 3.35418 17018 ft 353 kts 225°
2026-05-05 20:27 41.87427 3.33040 16375 ft 351 kts 225°
2026-05-05 20:28 41.85751 3.30718 15760 ft 348 kts 226°
2026-05-05 20:28 41.84080 3.28405 15129 ft 346 kts 226°
2026-05-05 20:28 41.82385 3.26062 14504 ft 344 kts 226°
2026-05-05 20:28 41.80723 3.23765 13897 ft 343 kts 226°
2026-05-05 20:29 41.79619 3.22241 13439 ft 342 kts 226°
2026-05-05 20:29 41.77949 3.19937 12757 ft 341 kts 226°
2026-05-05 20:29 41.76301 3.17664 12109 ft 339 kts 226°
2026-05-05 20:29 41.74660 3.15402 11467 ft 337 kts 226°
2026-05-05 20:30 41.73028 3.13155 10834 ft 336 kts 227°
2026-05-05 20:30 41.71393 3.10906 10303 ft 331 kts 227°
2026-05-05 20:30 41.69828 3.08755 10059 ft 318 kts 227°
2026-05-05 20:30 41.68280 3.06630 9643 ft 312 kts 227°
2026-05-05 20:31 41.66773 3.04563 9103 ft 309 kts 226°
2026-05-05 20:31 41.65145 3.02694 8535 ft 309 kts 216°
2026-05-05 20:31 41.63256 3.01318 7992 ft 309 kts 207°
2026-05-05 20:31 41.61312 3.00112 7451 ft 307 kts 206°
2026-05-05 20:32 41.59371 2.98929 6999 ft 304 kts 206°
2026-05-05 20:32 41.57482 2.97774 6763 ft 293 kts 206°
2026-05-05 20:32 41.55660 2.96656 6521 ft 284 kts 207°
2026-05-05 20:32 41.53895 2.95569 6275 ft 275 kts 207°
2026-05-05 20:33 41.52249 2.94275 6021 ft 267 kts 217°
2026-05-05 20:33 41.50754 2.92814 5763 ft 266 kts 219°
2026-05-05 20:33 41.49284 2.91313 5511 ft 266 kts 220°
2026-05-05 20:33 41.47830 2.89800 5261 ft 265 kts 220°
2026-05-05 20:34 41.46383 2.88283 5010 ft 264 kts 220°
2026-05-05 20:34 41.44944 2.86767 4802 ft 262 kts 220°
2026-05-05 20:34 41.43512 2.85256 4661 ft 262 kts 220°
2026-05-05 20:34 41.42085 2.83749 4543 ft 261 kts 220°
2026-05-05 20:35 41.40658 2.82243 4410 ft 260 kts 220°
2026-05-05 20:35 41.39258 2.80764 4282 ft 260 kts 220°
2026-05-05 20:35 41.37837 2.79265 4167 ft 260 kts 220°
2026-05-05 20:35 41.36422 2.77772 4020 ft 260 kts 220°
2026-05-05 20:36 41.35009 2.76281 3924 ft 259 kts 220°
2026-05-05 20:36 41.33596 2.74793 3910 ft 259 kts 220°
2026-05-05 20:36 41.32187 2.73307 3908 ft 259 kts 221°
2026-05-05 20:36 41.30930 2.71641 3910 ft 254 kts 234°
2026-05-05 20:37 41.30116 2.69555 3800 ft 255 kts 255°
2026-05-05 20:37 41.29959 2.67999 3705 ft 252 kts 272°
2026-05-05 20:37 41.30732 2.65100 3543 ft 253 kts 307°
2026-05-05 20:37 41.32142 2.63608 3413 ft 257 kts 335°
2026-05-05 20:38 41.33890 2.63072 3293 ft 259 kts 350°
2026-05-05 20:38 41.35679 2.62814 3169 ft 259 kts 352°
2026-05-05 20:38 41.37466 2.62570 3045 ft 258 kts 353°
2026-05-05 20:38 41.39323 2.62782 2905 ft 259 kts 14°
2026-05-05 20:39 41.40842 2.63879 2775 ft 253 kts 39°
2026-05-05 20:39 41.41882 2.65779 2668 ft 263 kts 60°
2026-05-05 20:39 41.42828 2.67849 2601 ft 261 kts 45°
2026-05-05 20:39 41.44238 2.69201 2637 ft 237 kts 21°
2026-05-05 20:40 41.45760 2.69606 2619 ft 213 kts 355°
2026-05-05 20:40 41.47154 2.69162 2610 ft 202 kts 332°
2026-05-05 20:40 41.48249 2.68036 2607 ft 198 kts 308°
2026-05-05 20:40 41.48809 2.66386 2614 ft 198 kts 276°
2026-05-05 20:41 41.48614 2.64582 2614 ft 199 kts 254°
2026-05-05 20:41 41.48144 2.62843 2611 ft 200 kts 251°
2026-05-05 20:41 41.47808 2.61672 2608 ft 200 kts 251°
2026-05-05 20:41 41.47187 2.59370 2609 ft 200 kts 251°
2026-05-05 20:42 41.46690 2.57673 2615 ft 200 kts 249°
2026-05-05 20:42 41.46142 2.55954 2611 ft 200 kts 248°
2026-05-05 20:42 41.45579 2.54259 2618 ft 200 kts 248°
2026-05-05 20:42 41.44988 2.52579 2620 ft 200 kts 246°
2026-05-05 20:43 41.44389 2.50904 2627 ft 201 kts 247°
2026-05-05 20:43 41.43799 2.49220 2626 ft 200 kts 248°
2026-05-05 20:43 41.43418 2.48108 2636 ft 200 kts 248°
2026-05-05 20:43 41.42653 2.45837 2648 ft 200 kts 249°
2026-05-05 20:44 41.42269 2.44694 2648 ft 200 kts 248°
2026-05-05 20:44 41.41699 2.43008 2650 ft 199 kts 248°
2026-05-05 20:44 41.41103 2.41255 2657 ft 200 kts 248°
2026-05-05 20:44 41.40544 2.39616 2663 ft 199 kts 248°
2026-05-05 20:45 41.39391 2.36235 2669 ft 199 kts 248°
2026-05-05 20:45 41.38822 2.34561 2675 ft 199 kts 248°
2026-05-05 20:45 41.38252 2.32890 2681 ft 198 kts 248°
2026-05-05 20:46 41.37680 2.31209 2684 ft 198 kts 248°
2026-05-05 20:46 41.37110 2.29536 2689 ft 196 kts 249°
2026-05-05 20:46 41.36579 2.27982 2686 ft 189 kts 248°
2026-05-05 20:46 41.36042 2.26405 2651 ft 183 kts 248°
2026-05-05 20:47 41.35524 2.24885 2466 ft 177 kts 248°
2026-05-05 20:47 41.35017 2.23396 2184 ft 176 kts 248°
2026-05-05 20:47 41.34530 2.21966 1942 ft 176 kts 249°
2026-05-05 20:47 41.34024 2.20481 1718 ft 177 kts 248°
2026-05-05 20:48 41.33517 2.18995 1467 ft 175 kts 248°
2026-05-05 20:48 41.33026 2.17557 1229 ft 165 kts 247°
2026-05-05 20:48 41.32572 2.16230 1014 ft 149 kts 248°
2026-05-05 20:48 41.32157 2.15011 828 ft 143 kts 248°
2026-05-05 20:49 41.31739 2.13786 630 ft 144 kts 249°
2026-05-05 20:49 41.31317 2.12579 398 ft 145 kts 248°
2026-05-05 20:49 41.30896 2.11355 214 ft 145 kts 250°
2026-05-05 20:49 41.30487 2.10143 66 ft 144 kts 246°
2026-05-05 20:50 41.30064 2.08950 25 ft 138 kts 252°
2026-05-05 20:50 41.29730 2.07905 11 ft 104 kts 244°
2026-05-05 20:50 41.29487 2.07213 10 ft 46 kts 246°
2026-05-05 20:50 41.29406 2.07057 9 ft 5 kts 191°
2026-05-05 20:51 41.29363 2.07061 9 ft 14 kts 168°
2026-05-05 20:51 41.29322 2.07082 9 ft 0 kts 155°
2026-05-05 20:52 41.29317 2.07086 9 ft 5 kts 154°
2026-05-05 20:52 41.29290 2.07174 9 ft 15 kts 80°
2026-05-05 20:52 41.29324 2.07294 9 ft 10 kts 82°
2026-05-05 20:53 41.29304 2.07375 9 ft 12 kts 101°
2026-05-05 20:53 41.29324 2.07484 9 ft 15 kts 65°
2026-05-05 20:53 41.29312 2.07568 10 ft 10 kts 131°
2026-05-05 20:53 41.29249 2.07615 9 ft 16 kts 155°
2026-05-05 20:54 41.29155 2.07657 9 ft 8 kts 178°
2026-05-05 20:54 41.29122 2.07632 10 ft 7 kts 226°
2026-05-05 20:54 41.29103 2.07583 9 ft 8 kts 246°
2026-05-05 20:54 41.29097 2.07558 9 ft 0 kts 251°
2026-05-05 20:55 41.29094 2.07548 9 ft 0 kts 251°
2026-05-05 20:55 41.29095 2.07549 9 ft 1 kts 251°
2026-05-05 20:55 41.29095 2.07550 9 ft 0 kts 251°